Flag for U.S.A. Weather past 2 weeks in Tulsa, Oklahoma, U.S.A.

Now
70 °F

Scattered clouds.


Feels Like: 70 °F
Forecast: 67 / 78 °F
Wind: 6 mph from South

Location: Tulsa International Airport

Current Time: May 27, 2015 at 9:02:15 AM

Latest Report: May 27, 2015 at 7:53 AM


Visibility: 10 mi

Pressure: 30.02 "Hg

Humidity: 81%

Dew point: 64 °F

Location of TulsaLocation

Historic Weather in Tulsa — Graph

°F

Tulsa temperature yesterday

Maximum temperature yesterday: 81 °F (at 3:53 PM)
Minimum temperature yesterday: 60 °F (at 5:53 AM)
Average temperature yesterday: 70 °F

Past Weeks' High & Low Weather Summary

 TemperatureHumidityPressure
High85 °F (May 18, 1:53 PM)100% (May 14, 4:53 AM)30.34 "Hg (May 14, 4:53 AM)
Low49 °F (May 21, 5:53 AM)33% (May 12, 1:53 PM)29.66 "Hg (May 16, 9:53 PM)
Average67 °F81%30.01 "Hg
* Reported May 12 7:53 AM — May 27 7:53 AM, Tulsa, Weather by CustomWeather, © 2015

Note: Actual official high and low records may vary slightly from our data, if they occured in-between our weather recording intervals... More about our weather records

Advertising

Tulsa weather history for previous 24 hours

 ConditionsComfort  
Time TempWeatherWind HumidityBarometerVisibility
7:53 AM
Wed, May 27
70 °FScattered clouds.6 mph81%30.02 "Hg10 mi
6:53 AM67 °FPassing clouds.6 mph90%30.01 "Hg10 mi
5:53 AM65 °FPassing clouds.5 mph97%30.00 "Hg10 mi
4:53 AM67 °FPassing clouds.5 mph93%29.99 "Hg10 mi
3:53 AM68 °FHigh level clouds.8 mph87%29.97 "Hg10 mi
2:53 AM66 °FMostly cloudy.8 mph90%29.97 "Hg10 mi
1:53 AM68 °FMostly cloudy.7 mph76%29.96 "Hg10 mi
1:03 AM71 °FMostly cloudy.3 mph84%29.98 "Hg10 mi
12:53 AM71 °FPassing clouds.8 mph90%29.96 "Hg10 mi
12:04 AM72 °FThunderstorms. Overcast.6 mph87%29.94 "Hg7 mi
11:53 PM
Tue, May 26
71 °FThunderstorms. Fog.7 mph93%29.94 "Hg5 mi
10:53 PM72 °FThunderstorms. Mostly cloudy.5 mph87%29.94 "Hg7 mi
9:53 PM73 °FThunderstorms. Mostly cloudy.5 mph81%29.93 "Hg7 mi
8:53 PM75 °FPartly sunny.5 mph71%29.93 "Hg10 mi
7:53 PM76 °FBroken clouds.6 mph67%29.90 "Hg10 mi
6:53 PM78 °FBroken clouds.9 mph62%29.90 "Hg10 mi
5:53 PM76 °FBroken clouds.8 mph69%29.93 "Hg10 mi
4:53 PM77 °FBroken clouds.10 mph64%29.91 "Hg10 mi
3:53 PM81 °FScattered clouds.13 mph54%29.92 "Hg10 mi
2:53 PM80 °FBroken clouds.8 mph58%29.93 "Hg10 mi
1:53 PM78 °FBroken clouds.12 mph62%29.95 "Hg10 mi
12:53 PM76 °FScattered clouds.9 mph62%29.95 "Hg10 mi
11:53 AM74 °FScattered clouds.7 mph67%29.96 "Hg10 mi
10:53 AM71 °FScattered clouds.3 mph71%29.95 "Hg10 mi
9:53 AM67 °FScattered clouds.10 mph79%29.95 "Hg10 mi
Weather by CustomWeather, © 2015

See weather overviewHow to use our weather pages